• en France
  • Liste des pays
  • À 7 jours
  • Température de l'eau
  • Carte satellitaire
  • Carte météo
  • Widgets météo
  • user-avatar
    Se connecter

    Météo par heure à Sydney

    Ce jour, 15 Octobre, Lundi

    Heure Température Précipitation Vent Pression Humidité
    00:00 +16°C° 0.1 mm 3 m/s 768 mmHg 93%
    01:00 +14°C° 0.1 mm 4 m/s 768 mmHg 94%
    02:00 +14°C° 0.2 mm 4 m/s 768 mmHg 95%
    03:00 +14°C° 0.2 mm 4 m/s 768 mmHg 95%
    04:00 +14°C° 0 mm 3 m/s 767 mmHg 96%
    05:00 +16°C° 0.2 mm 3 m/s 768 mmHg 93%
    06:00 +17°C° 0.2 mm 3 m/s 768 mmHg 91%
    07:00 +18°C° 0.2 mm 3 m/s 768 mmHg 89%
    08:00 +19°C° 0.5 mm 4 m/s 768 mmHg 85%
    09:00 +20°C° 0.5 mm 6 m/s 768 mmHg 82%
    10:00 +21°C° 0 mm 5 m/s 768 mmHg 76%
    11:00 +21°C° 0.3 mm 5 m/s 768 mmHg 74%
    12:00 +22°C° 0.3 mm 6 m/s 767 mmHg 73%
    13:00 +22°C° 0.3 mm 7 m/s 767 mmHg 71%
    14:00 +22°C° 0.2 mm 7 m/s 767 mmHg 73%
    15:00 +22°C° 0.2 mm 7 m/s 767 mmHg 74%
    16:00 +22°C° 0 mm 5 m/s 766 mmHg 73%
    17:00 +21°C° 0.1 mm 5 m/s 766 mmHg 78%
    18:00 +20°C° 0.1 mm 5 m/s 767 mmHg 82%
    19:00 +17°C° 0.1 mm 6 m/s 767 mmHg 87%
    20:00 +17°C° 0.1 mm 6 m/s 767 mmHg 89%
    21:00 +17°C° 0.1 mm 6 m/s 767 mmHg 90%
    22:00 +17°C° 0.1 mm 6 m/s 767 mmHg 92%
    23:00 +17°C° 0.1 mm 5 m/s 767 mmHg 92%

    Demain, 16 Octobre, Mardi

    Heure Température Précipitation Vent Pression Humidité
    00:00 +16°C° 0.1 mm 5 m/s 767 mmHg 93%
    01:00 +16°C° 0.1 mm 5 m/s 766 mmHg 94%
    02:00 +16°C° 0.1 mm 5 m/s 766 mmHg 94%
    03:00 +16°C° 0.1 mm 5 m/s 766 mmHg 94%
    04:00 +16°C° 0.1 mm 5 m/s 766 mmHg 94%
    05:00 +17°C° 0.2 mm 5 m/s 766 mmHg 92%
    06:00 +17°C° 0.2 mm 5 m/s 766 mmHg 91%
    07:00 +19°C° 0.2 mm 6 m/s 766 mmHg 89%
    08:00 +20°C° 0.3 mm 6 m/s 766 mmHg 84%
    09:00 +21°C° 0.3 mm 6 m/s 766 mmHg 79%
    10:00 +22°C° 0.3 mm 6 m/s 766 mmHg 74%
    11:00 +22°C° 0.1 mm 7 m/s 766 mmHg 71%
    12:00 +23°C° 0.1 mm 7 m/s 765 mmHg 69%
    13:00 +23°C° 0.1 mm 7 m/s 765 mmHg 67%
    14:00 +23°C° 0 mm 7 m/s 764 mmHg 66%
    15:00 +23°C° 0 mm 7 m/s 764 mmHg 66%
    16:00 +23°C° 0 mm 7 m/s 763 mmHg 65%
    17:00 +22°C° 0 mm 7 m/s 764 mmHg 71%
    18:00 +20°C° 0 mm 6 m/s 764 mmHg 77%
    19:00 +19°C° 0 mm 6 m/s 764 mmHg 83%
    20:00 +19°C° 0 mm 6 m/s 764 mmHg 85%
    21:00 +17°C° 0 mm 6 m/s 764 mmHg 88%
    22:00 +17°C° 0 mm 6 m/s 764 mmHg 90%
    23:00 +17°C° 0.1 mm 6 m/s 764 mmHg 91%

    Après-demain, 17 Octobre, Mercredi

    Heure Température Précipitation Vent Pression Humidité
    00:00 +17°C° 0.1 mm 5 m/s 763 mmHg 92%
    01:00 +17°C° 0.1 mm 5 m/s 763 mmHg 93%
    02:00 +17°C° 0 mm 5 m/s 763 mmHg 93%
    03:00 +18°C° 0 mm 4 m/s 763 mmHg 93%
    04:00 +18°C° 0 mm 4 m/s 762 mmHg 92%
    05:00 +19°C° 0 mm 5 m/s 763 mmHg 90%
    06:00 +19°C° 0 mm 5 m/s 763 mmHg 88%
    07:00 +20°C° 0 mm 6 m/s 763 mmHg 86%
    08:00 +20°C° 0 mm 6 m/s 763 mmHg 83%
    09:00 +21°C° 0 mm 6 m/s 763 mmHg 81%
    10:00 +21°C° 0 mm 5 m/s 763 mmHg 78%
    11:00 +22°C° 0 mm 6 m/s 762 mmHg 74%
    12:00 +23°C° 0 mm 6 m/s 762 mmHg 70%
    13:00 +24°C° 0 mm 6 m/s 761 mmHg 66%
    14:00 +24°C° 0 mm 6 m/s 761 mmHg 70%
    15:00 +23°C° 0 mm 7 m/s 760 mmHg 73%
    16:00 +23°C° 0 mm 7 m/s 760 mmHg 77%
    17:00 +22°C° 0 mm 7 m/s 760 mmHg 80%
    18:00 +21°C° 0 mm 7 m/s 760 mmHg 84%
    19:00 +20°C° 0 mm 7 m/s 761 mmHg 88%
    20:00 +20°C° 0 mm 6 m/s 761 mmHg 89%
    21:00 +20°C° 0 mm 6 m/s 761 mmHg 91%
    22:00 +19°C° 0 mm 6 m/s 761 mmHg 92%
    23:00 +19°C° 0 mm 6 m/s 761 mmHg 92%

    18 Octobre, Jeudi

    Heure Température Précipitation Vent Pression Humidité
    00:00 +19°C° 0 mm 6 m/s 760 mmHg 92%
    01:00 +19°C° 0 mm 6 m/s 760 mmHg 93%
    02:00 +19°C° 0 mm 5 m/s 760 mmHg 93%
    03:00 +19°C° 0 mm 5 m/s 760 mmHg 93%
    04:00 +19°C° 0 mm 5 m/s 760 mmHg 93%
    05:00 +19°C° 0.1 mm 5 m/s 760 mmHg 91%
    06:00 +20°C° 0.1 mm 5 m/s 760 mmHg 89%
    07:00 +20°C° 0.1 mm 4 m/s 761 mmHg 87%
    08:00 +22°C° 0.1 mm 4 m/s 761 mmHg 79%
    09:00 +23°C° 0.1 mm 4 m/s 761 mmHg 71%
    10:00 +26°C° 0.1 mm 4 m/s 761 mmHg 63%
    11:00 +26°C° 1.1 mm 4 m/s 760 mmHg 66%
    12:00 +27°C° 1.1 mm 5 m/s 760 mmHg 68%
    13:00 +27°C° 1.1 mm 5 m/s 759 mmHg 71%
    14:00 +26°C° 1.1 mm 6 m/s 759 mmHg 72%
    15:00 +26°C° 1.1 mm 6 m/s 759 mmHg 74%
    16:00 +24°C° 1.1 mm 6 m/s 758 mmHg 76%
    17:00 +23°C° 0.4 mm 6 m/s 759 mmHg 81%
    18:00 +22°C° 0.4 mm 6 m/s 759 mmHg 85%
    19:00 +20°C° 0.4 mm 5 m/s 760 mmHg 90%
    20:00 +20°C° 0.2 mm 5 m/s 760 mmHg 91%
    21:00 +19°C° 0.2 mm 5 m/s 760 mmHg 93%
    22:00 +19°C° 0.2 mm 4 m/s 760 mmHg 94%
    23:00 +18°C° 0.1 mm 4 m/s 760 mmHg 94%

    19 Octobre, Vendredi

    Heure Température Précipitation Vent Pression Humidité
    00:00 +18°C° 0.1 mm 3 m/s 760 mmHg 95%
    01:00 +17°C° 0.1 mm 3 m/s 760 mmHg 95%
    02:00 +17°C° 0 mm 3 m/s 760 mmHg 94%
    03:00 +16°C° 0 mm 2 m/s 760 mmHg 94%
    04:00 +16°C° 0 mm 2 m/s 759 mmHg 93%
    05:00 +17°C° 0 mm 2 m/s 760 mmHg 88%
    06:00 +18°C° 0 mm 2 m/s 760 mmHg 83%
    07:00 +20°C° 0 mm 1 m/s 761 mmHg 78%
    08:00 +23°C° 0 mm 1 m/s 760 mmHg 65%
    09:00 +26°C° 0 mm 1 m/s 760 mmHg 53%
    10:00 +29°C° 0 mm 1 m/s 760 mmHg 40%
    11:00 +30°C° 0 mm 1 m/s 759 mmHg 35%
    12:00 +31°C° 0 mm 2 m/s 759 mmHg 30%
    13:00 +33°C° 0 mm 3 m/s 758 mmHg 26%
    14:00 +33°C° 0 mm 4 m/s 758 mmHg 28%
    15:00 +32°C° 0 mm 4 m/s 757 mmHg 31%
    16:00 +30°C° 0 mm 4 m/s 757 mmHg 34%
    17:00 +28°C° 0 mm 4 m/s 757 mmHg 44%
    18:00 +25°C° 0 mm 4 m/s 757 mmHg 55%
    19:00 +22°C° 0 mm 4 m/s 758 mmHg 65%
    20:00 +21°C° 0 mm 4 m/s 758 mmHg 65%
    21:00 +20°C° 0 mm 3 m/s 758 mmHg 66%
    22:00 +20°C° 0 mm 3 m/s 759 mmHg 66%
    23:00 +19°C° 0 mm 3 m/s 758 mmHg 65%

    20 Octobre, Samedi

    Heure Température Précipitation Vent Pression Humidité
    00:00 +19°C° 0 mm 3 m/s 758 mmHg 63%
    01:00 +18°C° 0 mm 3 m/s 757 mmHg 61%
    02:00 +18°C° 0 mm 3 m/s 757 mmHg 58%
    03:00 +18°C° 0 mm 3 m/s 757 mmHg 56%
    04:00 +18°C° 0 mm 3 m/s 757 mmHg 53%
    05:00 +19°C° 0 mm 3 m/s 757 mmHg 52%
    06:00 +20°C° 0 mm 3 m/s 758 mmHg 50%
    07:00 +21°C° 0 mm 3 m/s 758 mmHg 48%
    08:00 +25°C° 0 mm 3 m/s 758 mmHg 41%
    09:00 +28°C° 0 mm 3 m/s 758 mmHg 34%
    10:00 +33°C° 0 mm 3 m/s 758 mmHg 27%
    11:00 +33°C° 0.2 mm 3 m/s 758 mmHg 29%
    12:00 +33°C° 0.2 mm 3 m/s 759 mmHg 30%
    13:00 +33°C° 0.2 mm 4 m/s 759 mmHg 32%
    14:00 +27°C° 1.7 mm 5 m/s 759 mmHg 50%
    15:00 +22°C° 1.7 mm 7 m/s 760 mmHg 68%
    16:00 +17°C° 1.7 mm 8 m/s 760 mmHg 86%
    17:00 +17°C° 0.3 mm 8 m/s 761 mmHg 86%
    18:00 +16°C° 0.3 mm 8 m/s 763 mmHg 85%
    19:00 +15°C° 0.3 mm 7 m/s 764 mmHg 85%
    20:00 +15°C° 0 mm 6 m/s 764 mmHg 84%
    21:00 +15°C° 0 mm 5 m/s 765 mmHg 83%
    22:00 +15°C° 0 mm 4 m/s 766 mmHg 83%
    23:00 +14°C° 0 mm 4 m/s 766 mmHg 83%
    Voir plus